OSCAR 7 1 07530U 74089B 10210.57978355 -.00000027 +00000-0 +10000-3 0 08416 2 07530 101.4004 224.8007 0011677 190.1584 169.9254 12.53578981633760 OSCAR 11 (UoSAT 2) 1 14781U 84021B 10210.68870069 -.00000148 +00000-0 -12584-4 0 03010 2 14781 098.0526 262.5531 0010239 100.2921 259.9425 14.79818522418092 EGS (AJISAI) 1 16908U 86061A 10210.85922146 -.00000083 +00000-0 +10000-3 0 03211 2 16908 050.0118 345.5416 0011622 173.8456 186.2523 12.44464238758369 TDRS 3 1 19548U 88091B 10207.55678259 -.00000301 00000-0 10000-3 0 5052 2 19548 012.5855 035.7259 0033876 324.0708 095.9894 01.00265417 67202 NAVSTAR 13 (USA 35) 1 19802U 89013A 10209.48445338 -.00000055 00000-0 10000-3 0 5263 2 19802 055.5011 291.3150 0047163 107.9066 252.6786 01.85321220151625 TDRS 4 1 19883U 89021B 10211.03871054 -.00000282 00000-0 10000-3 0 8572 2 19883 011.3737 047.1309 0004746 013.9765 214.5381 01.00269012250809 NAVSTAR 14 (USA 38) 1 20061U 89044A 10210.80741648 -.00000023 00000-0 10000-3 0 1965 2 20061 054.2189 086.7402 0021905 089.3168 271.0133 01.88857373152240 NAVSTAR 15 (USA 42) 1 20185U 89064A 10208.34050199 -.00000051 00000-0 10000-3 0 9693 2 20185 055.2620 288.8412 0014450 238.6819 121.2535 01.86084936148201 NAVSTAR 16 (USA 47) 1 20302U 89085A 10209.64660127 -.00000073 00000-0 10000-3 0 1628 2 20302 055.5032 029.3897 0007236 348.7770 011.2415 01.89423365148627 NAVSTAR 17 (USA 49) 1 20361U 89097A 10210.12973002 +.00000044 +00000-0 +10000-3 0 06587 2 20361 054.0908 217.0911 0018737 231.0353 128.8146 01.89175104139586 OSCAR 14 (UOSAT 3) 1 20437U 90005B 10210.81964583 -.00000032 00000-0 38001-5 0 2725 2 20437 098.3924 159.4467 0011544 043.9316 316.2793 14.31579700 71376 OSCAR 16 (PACSAT) 1 20439U 90005D 10210.67548761 +.00000009 +00000-0 +18812-4 0 09577 2 20439 098.3345 166.9156 0011784 043.9432 316.2683 14.31868264071462 OSCAR 19 (LUSAT) 1 20442U 90005G 10210.45678735 -.00000032 +00000-0 +34446-5 0 08671 2 20442 098.2955 172.3367 0012709 038.8695 321.3386 14.32098552071608 NAVSTAR 18 (USA 50) 1 20452U 90008A 10210.67960536 -.00000097 00000-0 10000-3 0 5320 2 20452 056.4474 337.1275 0011180 194.5937 165.3842 01.89595851146250 JAS 1B (FUJI 2) 1 20480U 90013C 10210.59318549 .00000007 00000-0 94447-4 0 5215 2 20480 099.0263 059.9973 0540066 327.9168 029.0093 12.83365246959167 NAVSTAR 20 (USA 63) 1 20724U 90068A 10210.28960582 -.00000034 00000-0 10000-3 0 6339 2 20724 054.6356 278.7740 0047014 240.7966 118.8171 01.87181850141328 FENGYUN 1B 1 20788U 90081A 10210.58666113 -.00000231 +00000-0 -12105-3 0 00455 2 20788 099.1280 233.6200 0015228 282.6302 077.3164 14.02366305018471 NAVSTAR 21 (USA 64) 1 20830U 90088A 10210.34096787 .00000048 00000-0 10000-3 0 5875 2 20830 054.0970 212.2225 0016861 165.7677 194.2869 01.87754359143935 NAVSTAR 22 (USA 66) 1 20959U 90103A 10210.43109086 -.00000011 00000-0 10000-3 0 7910 2 20959 054.9087 266.5813 0128669 304.6920 054.1933 02.00561614144073 COSMOS 2123 1 21089U 91007A 10210.55119076 +.00000011 +00000-0 -40955-5 0 05341 2 21089 082.9253 324.3111 0027691 275.8128 083.9857 13.74494533977156 NOAA 12 1 21263U 91032A 10210.88229836 +.00000033 +00000-0 +32803-4 0 06521 2 21263 098.7647 224.0350 0013266 045.5085 314.7175 14.25645864998489 NAVSTAR 23 (USA 71) 1 21552U 91047A 10211.26753010 .00000058 00000-0 10000-3 0 7675 2 21552 054.3733 204.5851 0058439 332.3833 027.2897 02.00428336139670 OSCAR 22 (UoSAT 5) 1 21575U 91050B 10210.72628463 -.00000008 00000-0 11566-4 0 8954 2 21575 098.4955 160.1619 0006657 234.4821 125.5741 14.39726457999341 TDRS 5 1 21639U 91054B 10210.58410104 .00000102 00000-0 10000-3 0 6823 2 21639 010.7583 050.7416 0018920 332.4887 326.5969 01.00267410 69540 METEOR 3-5 1 21655U 91056A 10210.87468726 +.00000051 +00000-0 +10000-3 0 08755 2 21655 082.5569 278.4777 0012306 239.3485 120.6407 13.17021296911298 NAVSTAR 24 (USA 79) 1 21890U 92009A 10209.61206112 -.00000084 00000-0 10000-3 0 7806 2 21890 055.7694 017.0639 0036441 301.7589 057.9000 01.91828873134922 NAVSTAR 26 (USA 83) 1 22014U 92039A 10210.23430678 -.00000088 +00000-0 +10000-3 0 06863 2 22014 056.7271 325.5277 0191395 063.2470 298.7159 02.00715319125805 OSCAR 23 (KITSAT 1) 1 22077U 92052B 10210.42601093 -.00000037 +00000-0 +10000-3 0 00429 2 22077 066.0825 193.7429 0002471 175.5527 184.5512 12.86453734843901 NAVSTAR 27 (USA 84) 1 22108U 92058A 10210.83153630 -.00000074 00000-0 10000-3 0 5790 2 22108 056.0831 018.6708 0217368 280.0934 077.4762 02.00571729130999 NAVSTAR 28 (USA 85) 1 22231U 92079A 10210.43539600 -.00000088 00000-0 10000-3 0 5358 2 22231 056.6255 326.2248 0082213 254.1143 105.0009 02.00575283129564 NAVSTAR 29 (USA 87) 1 22275U 92089A 10210.52289661 -.00000095 00000-0 10000-3 0 3442 2 22275 056.5480 328.2496 0037939 341.5379 018.3466 01.88249694127756 TDRS 6 1 22314U 93003B 10209.34357995 .00000087 00000-0 10000-3 0 7036 2 22314 010.1269 053.7320 0014312 340.3113 224.5885 01.00266742 64258 NAVSTAR 30 (USA 88) 1 22446U 93007A 10209.75938178 -.00000021 00000-0 10000-3 0 4394 2 22446 054.1584 088.4635 0023936 293.8507 065.9744 01.88093006124915 NAVSTAR 31 (USA 90) 1 22581U 93017A 10210.94042287 .00000022 00000-0 10000-3 0 1730 2 22581 053.5437 145.8000 0003882 305.8608 054.0883 01.88946783125062 NAVSTAR 32 (USA 91) 1 22657U 93032A 10211.08937218 .00000015 00000-0 10000-3 0 7608 2 22657 053.6702 137.3490 0097965 286.5164 072.4351 02.00559161122356 NAVSTAR 33 (USA 92) 1 22700U 93042A 10210.85432787 -.00000072 00000-0 10000-3 0 9249 2 22700 056.2184 020.1112 0168985 088.3100 273.6466 02.00559957125153 NAVSTAR 34 (USA 94) 1 22779U 93054A 10208.95687983 -.00000026 00000-0 10000-3 0 4790 2 22779 054.5013 075.9685 0104696 081.9882 279.2971 02.00559222123874 METEOR 2-21 1 22782U 93055A 10211.53499487 -.00000014 00000-0 -25474-4 0 8438 2 22782 082.5443 218.0487 0020694 282.2958 077.5879 13.83645467854070 KITSAT B 1 22825U 93061C 10210.78576810 .00000021 00000-0 25200-4 0 5895 2 22825 098.4872 157.6391 0009151 139.3693 220.8175 14.29303094878138 POSAT 1 1 22826U 93061D 10210.77360921 -.00000010 +00000-0 +12631-4 0 03283 2 22826 098.4816 158.2126 0009514 134.2326 225.9638 14.29559525878244 ITAMSAT 1 22828U 93061F 10210.86324169 -.00000037 00000-0 20305-5 0 5244 2 22828 098.4744 158.1083 0010892 110.6957 249.5391 14.29853428846541 NAVSTAR 35 (USA 96) 1 22877U 93068A 10210.99241339 .00000053 00000-0 10000-3 0 2632 2 22877 053.7977 201.7323 0098747 029.3398 331.1602 02.00557653122805 NAVSTAR 36 (USA 100) 1 23027U 94016A 10210.69770419 .00000014 00000-0 10000-3 0 2443 2 23027 053.5507 138.7180 0064498 301.3689 057.9989 02.00564969120102 RADIO ROSTO 1 23439U 94085A 10210.78289955 -.00000039 +00000-0 +10000-3 0 03175 2 23439 064.8207 325.6696 0160726 336.5932 022.7732 11.27553995642079 NOAA 14 1 23455U 94089A 10210.81717283 +.00000008 +00000-0 +27812-4 0 01444 2 23455 098.8772 291.2619 0010204 112.4184 247.8070 14.13790538803527 ORBCOMM FM 1 1 23545U 95017A 10210.66684880 .00000330 00000-0 80022-4 0 5652 2 23545 069.9726 255.8840 0008494 359.5079 000.6052 14.61569822813600 ORBCOMM FM 2 1 23546U 95017B 10210.65119065 +.00000356 +00000-0 +85478-4 0 06244 2 23546 069.9752 258.1266 0010742 345.7946 014.2900 14.61458276813611 TDRS 7 1 23613U 95035B 10211.03163916 .00000000 00000-0 10000-3 0 7713 2 23613 011.8757 043.6544 0029520 328.4729 031.4329 01.00275512 55088 NAVSTAR 37 (USA 117) 1 23833U 96019A 10210.71540198 .00000010 00000-0 10000-3 0 4320 2 23833 053.1408 134.6497 0132181 057.8229 303.4555 02.00557685105082 NAVSTAR 38 (USA 126) 1 23953U 96041A 10211.09467355 -.00000004 00000-0 10000-3 0 9265 2 23953 054.5793 262.9108 0090699 037.8436 322.8683 02.00580320102880 JAS 2 1 24278U 96046B 10210.92270926 -.00000021 +00000-0 +14125-4 0 03668 2 24278 098.5141 034.1429 0351094 013.1444 347.8563 13.52951876688886 NAVSTAR 39 (USA 128) 1 24320U 96056A 10210.98954055 -.00000026 00000-0 10000-3 0 6491 2 24320 054.8206 079.1285 0122292 085.9448 275.5344 02.00558899101543 FENGYUN 2A 1 24834U 97029A 10210.17085454 -.00000068 +00000-0 +10000-3 0 05205 2 24834 009.3780 058.0035 0095039 082.4687 278.7109 00.96050925047676 NAVSTAR 43 (USA 132) 1 24876U 97035A 10210.08362240 -.00000089 +00000-0 +10000-3 0 04043 2 24876 056.8600 325.7484 0042568 102.3290 258.1710 02.00557151095395 NAVSTAR 44 (USA 134) 1 25030U 97067A 10210.71648454 -.00000066 00000-0 10000-3 0 3263 2 25030 056.9295 025.8427 0112653 179.7004 180.3346 02.00563535 93301 ORBCOMM FM 8 1 25112U 97084A 10210.49328787 -.00000135 +00000-0 +20052-5 0 05845 2 25112 045.0169 238.2885 0009819 310.3805 049.6189 14.34422849658738 ORBCOMM FM 10 1 25113U 97084B 10210.52806125 +.00000398 +00000-0 +18969-3 0 03139 2 25113 045.0186 238.9579 0008290 283.7279 076.2645 14.34432184658731 ORBCOMM FM 11 1 25114U 97084C 10210.58952589 +.00000313 +00000-0 +15966-3 0 02491 2 25114 045.0177 238.2917 0008714 290.1883 069.8024 14.34423763658748 ORBCOMM FM 12 1 25115U 97084D 10210.50207722 +.00000120 +00000-0 +92011-4 0 02455 2 25115 045.0176 238.4450 0007373 290.3551 069.6501 14.34422880658732 ORBCOMM FM 9 1 25116U 97084E 10210.58061560 .00000088 00000-0 80550-4 0 4070 2 25116 045.0183 238.4742 0007907 279.1766 080.8182 14.34422139658749 ORBCOMM FM 5 1 25117U 97084F 10210.47582992 +.00000142 +00000-0 +99685-4 0 03413 2 25117 045.0174 239.2297 0004247 292.3258 067.7146 14.34415123658728 ORBCOMM FM 6 1 25118U 97084G 10210.53691193 +.00000352 +00000-0 +17378-3 0 02303 2 25118 045.0172 238.8141 0003626 287.7430 072.3025 14.34419066658739 ORBCOMM FM 7 1 25119U 97084H 10210.55425745 -.00000386 +00000-0 -86250-4 0 04952 2 25119 045.0173 238.9349 0005980 285.9732 074.0472 14.34426291658735 NOAA 15 1 25338U 98030A 10210.91985502 +.00000240 +00000-0 +12152-3 0 04663 2 25338 098.6209 197.0835 0009916 315.2853 044.7519 14.24845035634832 RESURS O1-N4 1 25394U 98043A 10210.85201801 -.00000004 +00000-0 +15934-4 0 05667 2 25394 098.3047 226.6090 0002505 087.9690 272.1776 14.24206760626426 TMSAT 1 25396U 98043C 10210.87536800 +.00000006 +00000-0 +20210-4 0 07601 2 25396 098.3077 221.9804 0003462 108.0421 252.1134 14.23808532626310 TECHSAT 1B 1 25397U 98043D 10210.56534532 -.00000062 +00000-0 -95457-5 0 02489 2 25397 098.3127 215.6830 0002106 118.4957 241.6424 14.23181520626078 ORBCOMM FM 17 1 25413U 98046A 10210.81895963 +.00000251 +00000-0 +15684-3 0 03691 2 25413 044.9950 161.8107 0003382 267.0410 093.0044 14.27645733624945 ORBCOMM FM 18 1 25414U 98046B 10210.90493267 .00000059 00000-0 79112-4 0 3258 2 25414 044.9950 160.5716 0004982 255.8445 104.1864 14.28033409624966 ORBCOMM FM 19 1 25415U 98046C 10210.84489102 -.00000093 +00000-0 +18093-4 0 03604 2 25415 044.9956 161.0628 0003704 262.3979 097.6446 14.28032161624952 ORBCOMM FM 20 1 25416U 98046D 10210.29504443 -.00000230 +00000-0 -36309-4 0 08014 2 25416 044.9965 163.8057 0003019 302.8726 057.1839 14.28033793624834 ORBCOMM FM 16 1 25417U 98046E 10210.86457523 -.00000238 +00000-0 -39813-4 0 04077 2 25417 044.9984 162.1597 0004821 292.1879 067.8453 14.28035310624959 ORBCOMM FM 15 1 25418U 98046F 10210.87399342 +.00000042 +00000-0 +72288-4 0 04583 2 25418 044.9977 162.3379 0005658 275.3094 084.7109 14.28043235624954 ORBCOMM FM 14 1 25419U 98046G 10210.88472318 +.00000227 +00000-0 +14606-3 0 04179 2 25419 044.9996 162.2235 0003878 289.1640 070.8777 14.28030092624952 ORBCOMM FM 13 1 25420U 98046H 10210.89472600 +.00000343 +00000-0 +19233-3 0 03030 2 25420 044.9996 162.5636 0005110 273.5635 086.4625 14.28028373624981 ORBCOMM FM 21 1 25475U 98053A 10210.54000686 +.00000045 +00000-0 +71888-4 0 03507 2 25475 045.0095 249.1745 0004855 194.2217 165.8498 14.29095989618088 ORBCOMM FM 22 1 25476U 98053B 10210.50520442 .00000314 00000-0 17739-3 0 297 2 25476 045.0097 249.7246 0004440 226.7070 133.3413 14.29102111618062 ORBCOMM FM 23 1 25477U 98053C 10210.56273893 +.00000475 +00000-0 +24037-3 0 03435 2 25477 045.0101 249.1812 0004216 221.4861 138.5663 14.29103395618242 ORBCOMM FM 24 1 25478U 98053D 10210.55143745 +.00000207 +00000-0 +13530-3 0 09207 2 25478 045.0112 249.4867 0004210 234.6401 125.4055 14.29106367618228 ORBCOMM FM 25 1 25479U 98053E 10210.51690071 +.00000020 +00000-0 +62352-4 0 02161 2 25479 045.0103 249.0084 0005847 231.4104 128.6215 14.29093384618214 ORBCOMM FM 26 1 25480U 98053F 10210.48541700 -.00000004 +00000-0 +52700-4 0 02959 2 25480 045.0083 239.3468 0008108 242.0452 117.9573 14.29376288618314 ORBCOMM FM 27 1 25481U 98053G 10210.52849065 +.00000099 +00000-0 +93131-4 0 08266 2 25481 045.0094 248.6184 0002905 227.6031 132.4567 14.29089817618219 ORBCOMM FM 28 1 25482U 98053H 10210.49967237 -.00000021 +00000-0 +45366-4 0 09427 2 25482 045.0093 218.5685 0005915 245.3876 114.6357 14.30210587618591 PAN SAT 1 25520U 98064B 10210.82234405 +.00000573 +00000-0 +18135-4 0 05480 2 25520 028.4590 044.6757 0005214 073.7022 286.4124 15.17615625650636 OSCAR 36 (UOSAT 12) 1 25693U 99021A 10210.79332413 -.00000069 00000-0 10314-4 0 2646 2 25693 064.5602 303.5402 0039220 305.0787 054.6640 14.78809845608118 FENGYUN 1C 1 25730U 99025A 10210.43951256 +.00000948 +00000-0 +57910-3 0 01034 2 25730 098.7861 174.2946 0022341 143.3283 216.9416 14.08223790577630 NAVSTAR 46 (USA 145) 1 25933U 99055A 10210.36195977 +.00000038 +00000-0 +10000-3 0 08502 2 25933 050.8999 188.0385 0106811 046.3502 314.5009 02.00553255079212 ORBCOMM FM 30 1 25980U 99065A 10210.73470887 .00000335 00000-0 18608-3 0 8717 2 25980 045.0331 053.7250 0004713 036.1099 324.0042 14.28975623555576 ORBCOMM FM 31 1 25981U 99065B 10210.86062141 +.00000382 +00000-0 +20423-3 0 09735 2 25981 045.0247 050.5189 0004463 043.9406 316.1765 14.28990325555580 ORBCOMM FM 32 1 25982U 99065C 10210.57785757 +.00000212 +00000-0 +13656-3 0 09045 2 25982 045.0234 050.3554 0006982 037.4938 322.6391 14.29379847555563 ORBCOMM FM 33 1 25983U 99065D 10210.68085829 +.00000116 +00000-0 +10033-3 0 08814 2 25983 045.0317 053.6488 0003993 037.4689 322.6443 14.28946668555557 ORBCOMM FM 36 1 25984U 99065E 10210.84719152 -.00000195 00000-0 -21898-4 0 9043 2 25984 045.0401 054.7061 0002805 305.2617 054.7948 14.28978308555581 ORBCOMM FM 35 1 25985U 99065F 10210.83257525 +.00000037 +00000-0 +69200-4 0 09372 2 25985 045.0426 055.6860 0003118 042.1247 317.9832 14.28977444555586 ORBCOMM FM 34 1 25986U 99065G 10210.88846377 +.00000259 +00000-0 +15644-3 0 08835 2 25986 045.0412 054.8728 0004391 009.0478 351.0429 14.28974814555598 OPAL 1 26063U 00004C 10210.64948187 -.00000016 +00000-0 +14631-4 0 08639 2 26063 100.2129 077.2005 0036884 193.9037 166.1134 14.35901477550425 NAVSTAR 47 (USA 150) 1 26360U 00025A 10210.45451327 -.00000002 00000-0 10000-3 0 9457 2 26360 053.6558 259.7874 0039008 074.7190 285.7908 02.00575652 74913 FENGYUN 2B 1 26382U 00032A 10208.71736000 .00000098 00000-0 10000-3 0 2940 2 26382 005.3194 067.4403 0002034 199.8396 160.2480 01.00078459 36928 CHAMP 1 26405U 00039B 10211.82583716 .00068318 61370-6 10425-3 0 4892 2 26405 087.2165 145.6060 0004785 107.5323 252.6487 16.04324719574631 NAVSTAR 48 (USA 151) 1 26407U 00040A 10210.29433954 -.00000020 +00000-0 +10000-3 0 08914 2 26407 055.6325 083.7196 0162512 248.7045 109.6294 02.00563375073583 NOAA 16 1 26536U 00055A 10210.86731351 +.00000021 +00000-0 +36349-4 0 09431 2 26536 099.1691 229.3407 0009912 214.1593 145.8925 14.12570536507855 SAUDISAT 1A 1 26545U 00057A 10210.63083025 +.00000082 +00000-0 +29496-4 0 05928 2 26545 064.5593 301.9767 0038626 214.1886 145.6679 14.80713700531529 TIUNGSAT 1 1 26548U 00057D 10210.63334963 +.00000169 +00000-0 +38423-4 0 07570 2 26548 064.5550 259.5052 0031142 216.7409 143.1581 14.83526112532398 SAUDISAT 1B 1 26549U 00057E 10210.90879973 -.00000022 +00000-0 +16477-4 0 06850 2 26549 064.5591 320.0185 0043401 214.4903 145.3388 14.79564647531185 NAVSTAR 49 (USA 154) 1 26605U 00071A 10210.40026168 -.00000088 +00000-0 +10000-3 0 09001 2 26605 056.4760 324.4660 0054671 238.6301 120.8604 02.00554017071182 NAVSTAR 50 (USA 156) 1 26690U 01004A 10210.26187362 -.00000008 +00000-0 +10000-3 0 07842 2 26690 053.6611 262.8881 0118334 228.0769 130.9874 02.00559277069594 PICOSAT 9 1 26930U 01043B 10210.87319367 -.00000007 +00000-0 +29486-4 0 04992 2 26930 067.0007 069.2239 0005298 219.4305 140.6410 14.30075985461033 PCSAT 1 26931U 01043C 10210.67002144 +.00000180 +00000-0 +10255-3 0 05213 2 26931 067.0524 094.5228 0005167 266.0963 093.9540 14.29605916460821 SAPPHIRE 1 26932U 01043D 10210.69068773 .00000165 00000-0 96517-4 0 5259 2 26932 067.0568 094.5537 0004506 245.5886 114.4751 14.29643146460870 FENGYUN 1D 1 27431U 02024B 10211.59416749 -.00000119 00000-0 -44091-4 0 1970 2 27431 098.6689 190.2047 0015120 339.7501 020.3068 14.09296341422337 NOAA 17 1 27453U 02032A 10210.78227151 -.00000028 +00000-0 +58403-5 0 09395 2 27453 098.4282 259.5051 0011982 018.1420 342.0162 14.24176506420763 MOZHAYETS 1 27560U 02054B 10211.60439644 .00000047 00000-0 20891-4 0 5544 2 27560 097.9198 038.4427 0043551 019.8034 340.4848 14.55114631406143 SAUDISAT 1C 1 27607U 02058C 10210.55081227 -.00000010 +00000-0 +20117-4 0 02328 2 27607 064.5559 227.8418 0036796 057.2562 303.2078 14.71557509408614 NAVSTAR 51 (USA 166) 1 27663U 03005A 10210.62050446 -.00000021 00000-0 10000-3 0 1836 2 27663 055.7354 083.2716 0059711 348.1199 011.8178 02.00548592 54954 NAVSTAR 52 (USA 168) 1 27704U 03010A 10211.18074325 .00000055 00000-0 10000-3 0 747 2 27704 053.4244 202.3184 0169935 219.7559 138.9893 02.00564947 53753 NAVSTAR 53 (USA 175) 1 28129U 03058A 10210.30541088 -.00000008 +00000-0 +10000-3 0 06711 2 28129 053.5302 263.1582 0056619 249.3547 110.1181 02.00558093048445 NAVSTAR 54 (USA 177) 1 28190U 04009A 10210.75773940 .00000022 00000-0 10000-3 0 6343 2 28190 054.8883 146.1702 0066093 351.2646 008.6083 02.00553298 46627 NAVSTAR 55 (USA 178) 1 28361U 04023A 10210.54547570 -.00000087 00000-0 10000-3 0 4580 2 28361 055.4266 322.1636 0069464 176.8725 183.2060 02.00564442 44700 APRIZESAT 2 1 28366U 04025A 10210.87769249 +.00000015 +00000-0 +18478-4 0 06863 2 28366 098.1223 188.3356 0109904 022.2419 338.3489 14.35617431318723 UNISAT 3 1 28373U 04025H 10210.89753594 +.00000013 +00000-0 +16222-4 0 07122 2 28373 098.0345 210.1437 0070222 301.7098 057.7255 14.43400656320956 AMSAT ECHO 1 28375U 04025K 10210.93097433 +.00000007 +00000-0 +15089-4 0 07372 2 28375 098.0643 201.9973 0084304 328.4660 031.1494 14.40692191319660 NAVSTAR 56 (USA 180) 1 28474U 04045A 10211.03740416 .00000054 00000-0 10000-3 0 3344 2 28474 053.8458 200.7111 0095364 179.6360 180.3581 02.00570877 42076 HAMSAT 1 28650U 05017B 10210.81125342 +.00000137 +00000-0 +23719-4 0 05650 2 28650 097.6894 262.5771 0027898 135.3287 225.0159 14.81778776283002 NAVSTAR 57 (USA 183) 1 28874U 05038A 10210.88826720 .00000020 00000-0 10000-3 0 5992 2 28874 055.0298 143.0171 0056388 218.9120 140.6736 02.00568268 35495 SSETI-EXPRESS 1 28894U 05043E 10210.72162586 .00000052 00000-0 20318-4 0 8280 2 28894 098.0043 093.1728 0017823 150.6987 209.5215 14.59741807253307 MOZ.5/SAFIR/RUBIN 5/SL-8 1 28898U 05043G 10210.77685864 +.00000094 +00000-0 +29737-4 0 06657 2 28898 097.9869 088.4914 0019084 163.4704 196.7155 14.58622261253119 SUITSAT (Decayed 2006-09-07) 1 28933U 05035C 06250.56263144 .13300754 00000-0 18638-3 0 4012 2 28933 051.6150 101.2534 0006572 313.0977 047.0289 16.48585101 34276 CUTE 1.7 (Decayed 2009-10-25) 1 28941U 06005C 09297.68475575 .14491492 29743-5 25760-3 0 5565 2 28941 098.0955 138.9518 0011688 319.8691 040.7485 16.46998778207909 HITSAT (Decayed 2008-06-18) 1 29484U 06041F 08170.27591928 .21901596 31637-5 19690-3 0 4662 2 29484 098.2496 292.5583 0013872 275.6258 084.5236 16.51113477 98738 NAVSTAR 58 (USA 190) 1 29486U 06042A 10210.99988090 -.00000070 00000-0 10000-3 0 9281 2 29486 056.0110 021.8593 0075135 299.3668 059.8997 02.00558208 28193 NAVSTAR 59 (USA 192) 1 29601U 06052A 10210.94843786 -.00000022 00000-0 10000-3 0 9667 2 29601 055.6616 082.2553 0035370 336.4623 023.4550 02.00565804 27108 RAFT (Decayed 2007-05-30) 1 29661U 06055C 07150.05824307 .13324117 12618-4 10400-3 0 3000 2 29661 051.6186 176.5045 0007204 190.7749 188.7342 16.52052832 25544 MARSCOM (Decayed 2007-05-06) 1 29662U 06055D 07126.39603970 .07031946 12599-4 11450-3 0 2632 2 29662 051.6121 302.3682 0004459 252.1654 110.7411 16.47981436 21652 ANDE MAA SPHERE 1 (Decayed 2007-12-25) 1 29664U 06055F 07359.16654419 .14620719 12705-4 12723-3 0 7381 2 29664 051.6179 150.0690 0003189 248.8461 111.8136 16.51627846 58777 ANDE FCAL SPHERE 2 (Decayed 2008-05-25) 1 29667U 06055J 08146.34060426 .11864717 12752-4 73624-4 0 9790 2 29667 051.6107 065.3702 0009039 260.8350 099.5042 16.53464210 82911 PEHUENSAT 1 1 29712U 07001D 10210.67023241 .00000892 00000-0 12109-3 0 2907 2 29712 097.7799 261.2315 0014871 032.4600 327.7504 14.81178588191771 NAVSTAR 60 (USA 196) 1 32260U 07047A 10211.25222294 -.00000085 00000-0 00000+0 0 7018 2 32260 054.6180 320.6475 0023183 354.9287 005.0763 02.00550978 20505 NAVSTAR 61 (USA 199) 1 32384U 07062A 10211.07579532 .00000022 00000-0 10000-3 0 7208 2 32384 055.0450 143.4868 0032050 285.6971 073.9503 02.00559306 19224 NAVSTAR 62 (USA 201) 1 32711U 08012A 10211.17035980 -.00000070 00000-0 10000-3 0 5722 2 32711 055.7047 021.8625 0037592 177.8344 182.2056 02.00560239 17434 DELFI C3 1 32789U 08021G 10210.71099516 +.00000623 +00000-0 +84571-4 0 07484 2 32789 097.8986 275.5382 0016391 143.1075 217.1257 14.82227995121807 YUBILEINY 1 32953U 08025A 10211.51305751 .00000010 00000-0 00000+0 0 9124 2 32953 082.5015 002.7302 0019075 011.4196 348.7311 12.43006929 99127 PRISM (HITOMI) 1 33493U 09002B 10211.76399910 .00000434 00000-0 62861-4 0 7099 2 33493 098.0903 331.6381 0020175 004.3756 355.7641 14.81045897 81937 STARS (KUKAI) 1 33498U 09002G 10210.74701098 .00000272 00000-0 51822-4 0 1667 2 33498 098.0631 320.9476 0014119 104.8391 255.4408 14.71514968 81248 KKS-1 (KISEKI) 1 33499U 09002H 10210.78522928 +.00000069 +00000-0 +19483-4 0 01767 2 33499 098.0649 320.5199 0011131 101.4020 258.8428 14.70822891081211 ANDE CASTOR SPHERE 1 35694U 09038F 10211.72575204 .00255328 00000-0 19404-3 0 6032 2 35694 051.6309 325.3258 0005769 340.9562 019.1759 16.14322512 58065 SUMBANDILA 1 35870U 09049F 10211.68090285 .00000698 00000-0 34549-4 0 9619 2 35870 097.3285 259.6597 0002215 339.1628 176.3057 15.20973722 48069 XIWANG-1 (HOPE-1) 1 36122U 09072B 10211.72478669 -.00000045 00000-0 00000+0 0 5351 2 36122 100.4669 271.7086 0007128 236.8676 123.1756 13.16281380 29941